Погода в Шаготи

Россия / Ярославская область     58°11′57″N   39°37′09″E
темп.,
°C
ветер,
м/с
пор.,
м/с
влажн.,
%
обл.,
%
осадки,
мм/ч
давл.,
гПа
погр.,
м
26 сентября, вс
вс2600:00+7ююв3996100 1.8 1002593
03:00+7юв2698100 2.3 1002343
06:00+8в2499100 0.6 1003263
09:00+8всв2598100 1.1 1004332
12:00+8св3696100 0.2 1007526
15:00+8св4894100 0.4 1010566
18:00+8св3993100 0.1 1013489
21:00+8с3994100 0.3 1015367
27 сентября, пн
пн2700:00+7с31095100 0.0 1017322
03:00+7с41195100 0.1 1019467
06:00+7с41096100 0.0 1021500
09:00+8ссв4995100 0.1 1022568
12:00+11ссв587899 0.3 10231056
15:00+10ссв4883100 0.8 1024929
18:00+8ссв498994 0.1 1026750
21:00+7св4888100 0.1 10271015
28 сентября, вт
вт2800:00+6св3888100 0.1 1029620
03:00+5св38935 0.1 1030371
06:00+3св28975 0.0 1032254
09:00+5всв367843 0.0 1032386
12:00+9всв235488 0.0 1033872
15:00+11св234849 0.0 10331051
18:00+6ссв227369 0.0 103428
21:00+4св228031 0.0 103521
29 сентября, ср
ср2900:00+3ссв11835 0.0 103611
03:00+2с218646 0.0 103613
06:00+2с229333 0.0 103625
09:00+6с237555 0.0 1036259
12:00+11с225970 0.0 1036724
15:00+11с2365100 0.0 1035624
18:00+8ссз238097 0.0 103582
21:00+7ссз2583100 0.0 1035174
30 сентября, чт
чт3000:00+7сз2585100 0.0 1035177
03:00+7сз2686100 0.0 1034195
06:00+7сз268894 0.0 1034206
09:00+9ссз2684100 0.0 1034244
12:00+12ссз247390 0.0 1034500
15:00+14сз346681 0.0 1033803
18:00+9сз248870 0.0 103388
21:00+8ссз229245 0.0 103345